Location: Mountain View
(37.3861°N, 122.0839°W)
Time: 13:29:19
(UTC-07:00)

ISS - Pass Details

Date: 07 October 2021
Orbit: 417 x 423 km, 51.6° (Epoch: 27 October)

Event Time Altitude Azimuth Distance (km) Brightness Sun altitude
Rises 19:07:51 0° 309° (NW) 2,362 0.9 -6.0°
Reaches altitude 10° 19:09:57 10° 309° (NW) 1,496 -0.2 -6.4°
Maximum altitude 19:13:19 85° 224° (SW) 423 -3.7 -7.0°
Drops below altitude 10° 19:16:40 10° 133° (SE) 1,491 -1.4 -7.7°
Enters shadow 19:18:00 - 133° (SE) 2,041 -0.7 -8.0°
